Location: Waco, TX
(31.5480°N, 97.1670°W)
Time: 20:30:56
(UTC-05:00)

ISS - Pass Details

Date: 22 May 2018
Orbit: 402 x 407 km, 51.6° (Epoch: 23 May)

Event Time Altitude Azimuth Distance (km) Brightness Sun altitude
Rises 22:05:08 0° 263° (W) 2,311 0.7 -19.2°
Reaches altitude 10° 22:07:51 10° 288° (WNW) 1,453 0.0 -19.6°
Maximum altitude 22:09:50 15° 326° (NW) 1,187 -0.5 -19.9°
Drops below altitude 10° 22:11:50 10° 3° (N) 1,455 -0.5 -20.2°
Sets 22:14:34 0° 28° (NNE) 2,316 0.2 -20.7°
